• In Uzbekistan
  • List of Countries
  • For 7 days
  • Water Temperature
  • Satellite Maps
  • Weather Map
  • Weather Widgets
  • user-avatar
    Login

    Hourly Weather Schokino

    Today, 23 October, Tuesday

    Time Temperature Precipitation Wind Pressure Humidity
    00:00 +2°C° 0 mm 3 mps 739 mmHg 81%
    01:00 +2°C° 0 mm 3 mps 738 mmHg 82%
    02:00 +1°C° 0 mm 3 mps 737 mmHg 83%
    03:00 +1°C° 0 mm 3 mps 737 mmHg 84%
    04:00 +1°C° 0 mm 3 mps 736 mmHg 85%
    05:00 +1°C° 0 mm 3 mps 735 mmHg 85%
    06:00 0°C° 0 mm 3 mps 734 mmHg 86%
    07:00 0°C° 0 mm 4 mps 734 mmHg 84%
    08:00 0°C° 0 mm 4 mps 734 mmHg 82%
    09:00 +1°C° 0 mm 4 mps 734 mmHg 80%
    10:00 +2°C° 0 mm 5 mps 733 mmHg 77%
    11:00 +3°C° 0 mm 5 mps 733 mmHg 74%
    12:00 +5°C° 0 mm 5 mps 732 mmHg 70%
    13:00 +5°C° 0 mm 5 mps 732 mmHg 71%
    14:00 +6°C° 0 mm 5 mps 731 mmHg 72%
    15:00 +6°C° 0 mm 5 mps 730 mmHg 73%
    16:00 +5°C° 0.1 mm 4 mps 730 mmHg 76%
    17:00 +5°C° 0.1 mm 4 mps 729 mmHg 79%
    18:00 +4°C° 0.1 mm 4 mps 729 mmHg 82%
    19:00 +4°C° 0.1 mm 4 mps 728 mmHg 84%
    20:00 +4°C° 0.1 mm 4 mps 728 mmHg 85%
    21:00 +4°C° 0.1 mm 4 mps 727 mmHg 86%
    22:00 +4°C° 0 mm 4 mps 727 mmHg 86%
    23:00 +4°C° 0 mm 4 mps 726 mmHg 86%

    Tomorrow, 24 October, Wednesday

    Time Temperature Precipitation Wind Pressure Humidity
    00:00 +4°C° 0 mm 4 mps 725 mmHg 86%
    01:00 +4°C° 0.1 mm 4 mps 724 mmHg 84%
    02:00 +4°C° 0.1 mm 4 mps 724 mmHg 82%
    03:00 +3°C° 0.1 mm 5 mps 723 mmHg 80%
    04:00 +2°C° 0.1 mm 5 mps 722 mmHg 80%
    05:00 +2°C° 0.1 mm 5 mps 721 mmHg 80%
    06:00 +2°C° 0.1 mm 5 mps 720 mmHg 80%
    07:00 +2°C° 0.2 mm 5 mps 719 mmHg 79%
    08:00 +3°C° 0.2 mm 6 mps 719 mmHg 79%
    09:00 +3°C° 0.2 mm 6 mps 718 mmHg 78%
    10:00 +3°C° 0.5 mm 6 mps 718 mmHg 79%
    11:00 +4°C° 0.5 mm 7 mps 717 mmHg 80%
    12:00 +4°C° 0.5 mm 7 mps 717 mmHg 81%
    13:00 +4°C° 0.8 mm 6 mps 716 mmHg 81%
    14:00 +5°C° 0.8 mm 6 mps 716 mmHg 82%
    15:00 +5°C° 0.8 mm 6 mps 716 mmHg 82%
    16:00 +6°C° 0.1 mm 5 mps 716 mmHg 84%
    17:00 +5°C° 0.1 mm 4 mps 716 mmHg 86%
    18:00 +5°C° 0.1 mm 3 mps 716 mmHg 88%
    19:00 +5°C° 0.5 mm 3 mps 716 mmHg 90%
    20:00 +5°C° 0.5 mm 3 mps 716 mmHg 92%
    21:00 +6°C° 0.5 mm 2 mps 716 mmHg 94%
    22:00 +5°C° 0.4 mm 2 mps 716 mmHg 95%
    23:00 +5°C° 0.4 mm 2 mps 715 mmHg 96%

    Day after tomorrow, 25 October, Thursday

    Time Temperature Precipitation Wind Pressure Humidity
    00:00 +6°C° 0.4 mm 1 mps 715 mmHg 96%
    01:00 +5°C° 1 mm 2 mps 715 mmHg 96%
    02:00 +4°C° 1 mm 3 mps 714 mmHg 96%
    03:00 +4°C° 1 mm 3 mps 714 mmHg 96%
    04:00 +4°C° 3.7 mm 4 mps 713 mmHg 96%
    05:00 +3°C° 3.7 mm 5 mps 712 mmHg 95%
    06:00 +4°C° 3.7 mm 6 mps 711 mmHg 94%
    07:00 +4°C° 1.5 mm 6 mps 711 mmHg 92%
    08:00 +4°C° 1.5 mm 6 mps 710 mmHg 90%
    09:00 +4°C° 1.5 mm 6 mps 710 mmHg 87%
    10:00 +3°C° 1.1 mm 6 mps 710 mmHg 86%
    11:00 +3°C° 1.1 mm 7 mps 710 mmHg 85%
    12:00 +3°C° 1.1 mm 7 mps 710 mmHg 84%
    13:00 +2°C° 1.1 mm 8 mps 710 mmHg 83%
    14:00 +1°C° 1.1 mm 9 mps 711 mmHg 81%
    15:00 +1°C° 1.1 mm 10 mps 712 mmHg 80%
    16:00 0°C° 0.3 mm 10 mps 713 mmHg 79%
    17:00 0°C° 0.3 mm 9 mps 714 mmHg 79%
    18:00 0°C° 0.3 mm 9 mps 715 mmHg 78%
    19:00 0°C° 0 mm 8 mps 716 mmHg 78%
    20:00 0°C° 0 mm 8 mps 717 mmHg 77%
    21:00 -1°C° 0 mm 7 mps 718 mmHg 76%
    22:00 -1°C° 0 mm 7 mps 719 mmHg 77%
    23:00 -1°C° 0 mm 7 mps 719 mmHg 77%

    26 October, Friday

    Time Temperature Precipitation Wind Pressure Humidity
    00:00 -1°C° 0 mm 6 mps 720 mmHg 78%
    01:00 -1°C° 0 mm 6 mps 720 mmHg 78%
    02:00 -1°C° 0 mm 6 mps 721 mmHg 78%
    03:00 -1°C° 0 mm 6 mps 721 mmHg 78%
    04:00 -1°C° 0 mm 6 mps 722 mmHg 80%
    05:00 -1°C° 0 mm 6 mps 722 mmHg 81%
    06:00 -1°C° 0 mm 6 mps 723 mmHg 82%
    07:00 -1°C° 0 mm 6 mps 724 mmHg 82%
    08:00 -1°C° 0 mm 6 mps 724 mmHg 81%
    09:00 -1°C° 0 mm 6 mps 725 mmHg 81%
    10:00 -1°C° 0 mm 6 mps 726 mmHg 80%
    11:00 -1°C° 0 mm 6 mps 726 mmHg 79%
    12:00 +1°C° 0 mm 5 mps 727 mmHg 77%
    13:00 +1°C° 0 mm 5 mps 727 mmHg 76%
    14:00 +2°C° 0 mm 5 mps 728 mmHg 74%
    15:00 +2°C° 0 mm 5 mps 728 mmHg 72%
    16:00 +2°C° 0.2 mm 5 mps 728 mmHg 75%
    17:00 +1°C° 0.2 mm 4 mps 729 mmHg 79%
    18:00 +1°C° 0.2 mm 4 mps 729 mmHg 82%
    19:00 +1°C° 0.1 mm 4 mps 730 mmHg 83%
    20:00 0°C° 0.1 mm 4 mps 730 mmHg 84%
    21:00 0°C° 0.1 mm 4 mps 731 mmHg 86%
    22:00 0°C° 0 mm 4 mps 731 mmHg 85%
    23:00 0°C° 0 mm 4 mps 732 mmHg 84%

    27 October, Saturday

    Time Temperature Precipitation Wind Pressure Humidity
    00:00 0°C° 0 mm 4 mps 732 mmHg 83%
    01:00 0°C° 0 mm 4 mps 733 mmHg 84%
    02:00 0°C° 0 mm 4 mps 733 mmHg 85%
    03:00 -1°C° 0 mm 4 mps 734 mmHg 86%
    04:00 -1°C° 0 mm 4 mps 734 mmHg 89%
    05:00 -1°C° 0 mm 4 mps 734 mmHg 91%
    06:00 -2°C° 0 mm 4 mps 735 mmHg 93%
    07:00 -1°C° 0 mm 4 mps 735 mmHg 92%
    08:00 -1°C° 0 mm 4 mps 736 mmHg 91%
    09:00 -1°C° 0 mm 4 mps 736 mmHg 90%
    10:00 0°C° 0 mm 4 mps 736 mmHg 86%
    11:00 +3°C° 0 mm 4 mps 736 mmHg 82%
    12:00 +3°C° 0 mm 5 mps 737 mmHg 77%
    13:00 +3°C° 0 mm 5 mps 736 mmHg 77%
    14:00 +5°C° 0 mm 5 mps 736 mmHg 76%
    15:00 +5°C° 0 mm 5 mps 736 mmHg 76%
    16:00 +5°C° 0 mm 5 mps 736 mmHg 78%
    17:00 +5°C° 0 mm 5 mps 736 mmHg 80%
    18:00 +3°C° 0 mm 5 mps 736 mmHg 82%
    19:00 +5°C° 0 mm 5 mps 736 mmHg 82%
    20:00 +4°C° 0 mm 6 mps 735 mmHg 82%
    21:00 +4°C° 0 mm 6 mps 735 mmHg 82%
    22:00 +4°C° 0 mm 6 mps 735 mmHg 84%
    23:00 +3°C° 0 mm 6 mps 734 mmHg 86%

    28 October, Sunday

    Time Temperature Precipitation Wind Pressure Humidity
    00:00 +3°C° 0 mm 6 mps 734 mmHg 88%
    01:00 +4°C° 0.3 mm 6 mps 734 mmHg 89%
    02:00 +4°C° 0.3 mm 6 mps 734 mmHg 91%
    03:00 +5°C° 0.3 mm 6 mps 733 mmHg 93%
    04:00 +7°C° 0.1 mm 6 mps 733 mmHg 93%
    05:00 +7°C° 0.1 mm 6 mps 733 mmHg 93%
    06:00 +8°C° 0.1 mm 6 mps 733 mmHg 93%
    07:00 +8°C° 0.3 mm 6 mps 733 mmHg 93%
    08:00 +8°C° 0.3 mm 6 mps 733 mmHg 92%
    09:00 +9°C° 0.3 mm 6 mps 733 mmHg 92%
    10:00 +9°C° 0.1 mm 7 mps 733 mmHg 90%
    11:00 +9°C° 0.1 mm 7 mps 733 mmHg 88%
    12:00 +10°C° 0.1 mm 7 mps 733 mmHg 86%
    13:00 +10°C° 0.1 mm 7 mps 733 mmHg 85%
    14:00 +10°C° 0.1 mm 7 mps 732 mmHg 83%
    15:00 +11°C° 0.1 mm 7 mps 732 mmHg 82%
    16:00 +11°C° 0 mm 7 mps 732 mmHg 82%
    17:00 +11°C° 0 mm 7 mps 732 mmHg 82%
    18:00 +11°C° 0 mm 7 mps 732 mmHg 82%
    19:00 +11°C° 0.1 mm 7 mps 732 mmHg 81%
    20:00 +11°C° 0.1 mm 7 mps 732 mmHg 81%
    21:00 +11°C° 0.1 mm 7 mps 732 mmHg 81%
    22:00 +11°C° 0.1 mm 7 mps 732 mmHg 82%
    23:00 +11°C° 0.1 mm 7 mps 732 mmHg 83%

    29 October, Monday

    Time Temperature Precipitation Wind Pressure Humidity
    00:00 +11°C° 0.1 mm 7 mps 732 mmHg 85%
    01:00 +11°C° 0.3 mm 7 mps 732 mmHg 86%
    02:00 +11°C° 0.3 mm 7 mps 732 mmHg 87%
    03:00 +11°C° 0.3 mm 6 mps 733 mmHg 88%
    04:00 +11°C° 0 mm 6 mps 733 mmHg 87%
    05:00 +10°C° 0 mm 6 mps 734 mmHg 87%
    06:00 +10°C° 0 mm 6 mps 734 mmHg 86%
    07:00 +9°C° 0 mm 6 mps 735 mmHg 83%
    08:00 +8°C° 0 mm 6 mps 736 mmHg 81%
    09:00 +7°C° 0 mm 6 mps 737 mmHg 78%
    10:00 +7°C° 0 mm 5 mps 738 mmHg 74%
    11:00 +7°C° 0 mm 5 mps 739 mmHg 71%
    12:00 +7°C° 0 mm 5 mps 740 mmHg 67%
    13:00 +7°C° 0 mm 4 mps 740 mmHg 66%
    14:00 +7°C° 0 mm 4 mps 741 mmHg 65%
    15:00 +8°C° 0 mm 3 mps 741 mmHg 65%
    16:00 +8°C° 0 mm 3 mps 742 mmHg 68%
    17:00 +7°C° 0 mm 2 mps 742 mmHg 71%
    18:00 +8°C° 0 mm 1 mps 743 mmHg 74%
    19:00 +8°C° 0.1 mm 1 mps 743 mmHg 75%
    20:00 +8°C° 0.1 mm 1 mps 743 mmHg 76%
    21:00 +6°C° 0.1 mm 0 mps 744 mmHg 77%
    22:00 +7°C° 0.2 mm 1 mps 744 mmHg 78%
    23:00 +7°C° 0.2 mm 1 mps 744 mmHg 80%
    Show more